UAL978A KIAD-EGPH

Flight info

Callsign UAL978A
Flight time N/A
Altitude 37000
Route WOOLY2 SWANN DCT BROSS Q419 RBV Q430 ACK DCT TUSKY N355C JOOPY/M079F370 DCT 49N050W 52N040W 54N030W 55N020W DCT ETARI/N0452F370 DCT MOGLO DCT KUGUR DCT MAC/N0378F250 N562 TRN DCT TLA
Aircraft A343/H-SDE2E3FGHIJ3J5M1P2RWXYZ/LB1D1

Departure

Time 2026-05-06 11:57
Airport Washington Dulles International Airport (KIAD)

Arrival

Time N/A
Airport Edinburgh Airport (EGPH)
Time Latitude Longitude Altitude Speed Heading
2026-05-06 11:04 38.94818 -77.44569 301 ft 0 kts 15°
2026-05-06 11:40 38.94809 -77.44572 301 ft 4 kts 12°
2026-05-06 11:40 38.94782 -77.44578 300 ft 4 kts
2026-05-06 11:41 38.94756 -77.44577 298 ft 4 kts 347°
2026-05-06 11:41 38.94733 -77.44564 300 ft 4 kts 308°
2026-05-06 11:41 38.94726 -77.44547 299 ft 1 kts 270°
2026-05-06 11:41 38.94726 -77.44544 300 ft 0 kts 270°
2026-05-06 11:45 38.94726 -77.44552 299 ft 3 kts 270°
2026-05-06 11:45 38.94727 -77.44630 300 ft 14 kts 270°
2026-05-06 11:45 38.94728 -77.44768 300 ft 16 kts 270°
2026-05-06 11:46 38.94729 -77.44908 296 ft 16 kts 270°
2026-05-06 11:46 38.94729 -77.45047 296 ft 15 kts 270°
2026-05-06 11:46 38.94730 -77.45183 296 ft 15 kts 270°
2026-05-06 11:46 38.94733 -77.45314 296 ft 14 kts 271°
2026-05-06 11:47 38.94734 -77.45446 296 ft 16 kts 270°
2026-05-06 11:47 38.94723 -77.45582 301 ft 15 kts 237°
2026-05-06 11:47 38.94634 -77.45608 300 ft 15 kts 180°
2026-05-06 11:47 38.94510 -77.45610 301 ft 20 kts 181°
2026-05-06 11:48 38.94360 -77.45611 299 ft 21 kts 181°
2026-05-06 11:48 38.94215 -77.45615 299 ft 20 kts 181°
2026-05-06 11:48 38.94078 -77.45616 301 ft 19 kts 180°
2026-05-06 11:48 38.93950 -77.45616 299 ft 18 kts 180°
2026-05-06 11:49 38.93827 -77.45617 299 ft 17 kts 181°
2026-05-06 11:49 38.93711 -77.45605 300 ft 16 kts 153°
2026-05-06 11:49 38.93634 -77.45509 301 ft 15 kts 146°
2026-05-06 11:49 38.93541 -77.45519 298 ft 13 kts 200°
2026-05-06 11:50 38.93468 -77.45554 300 ft 0 kts 200°
2026-05-06 11:56 38.93377 -77.45602 301 ft 6 kts 218°
2026-05-06 11:56 38.93379 -77.45633 300 ft 9 kts 278°
2026-05-06 11:56 38.93416 -77.45771 302 ft 29 kts 291°
2026-05-06 11:56 38.93551 -77.46247 303 ft 84 kts 290°
2026-05-06 11:57 38.93817 -77.47145 306 ft 130 kts 290°
2026-05-06 11:57 38.94181 -77.48392 375 ft 161 kts 286°
2026-05-06 11:57 38.94575 -77.49673 889 ft 161 kts 289°
2026-05-06 11:57 38.95297 -77.50931 1181 ft 181 kts 304°
2026-05-06 11:58 38.96117 -77.52159 1805 ft 180 kts 299°
2026-05-06 11:58 38.96921 -77.53366 2483 ft 178 kts 298°
2026-05-06 11:58 38.97738 -77.54633 2923 ft 193 kts 298°
2026-05-06 11:58 38.98624 -77.56035 3329 ft 212 kts 299°
2026-05-06 11:59 38.99615 -77.57602 3659 ft 238 kts 301°
2026-05-06 11:59 39.00698 -77.59292 4286 ft 250 kts 302°
2026-05-06 11:59 39.01808 -77.61023 5155 ft 252 kts 302°
2026-05-06 11:59 39.02933 -77.62784 5944 ft 258 kts 303°
2026-05-06 12:00 39.04081 -77.64575 6716 ft 263 kts 304°
2026-05-06 12:00 39.05463 -77.66199 7451 ft 277 kts 319°
2026-05-06 12:00 39.07281 -77.67199 8221 ft 295 kts 344°
2026-05-06 12:00 39.09377 -77.67028 8977 ft 313 kts 16°
2026-05-06 12:01 39.11226 -77.65510 9728 ft 322 kts 47°
2026-05-06 12:01 39.12362 -77.63033 10341 ft 327 kts 73°
2026-05-06 12:01 39.12725 -77.60114 10647 ft 337 kts 97°
2026-05-06 12:01 39.12219 -77.57154 10938 ft 343 kts 117°
2026-05-06 12:02 39.11613 -77.54099 11170 ft 369 kts 97°
2026-05-06 12:02 39.12007 -77.50759 11592 ft 389 kts 72°
2026-05-06 12:02 39.13383 -77.47774 12167 ft 399 kts 50°
2026-05-06 12:02 39.15256 -77.45095 12728 ft 406 kts 49°
2026-05-06 12:03 39.17043 -77.42242 13321 ft 411 kts 55°
2026-05-06 12:03 39.18664 -77.39179 13912 ft 416 kts 56°
2026-05-06 12:03 39.20485 -77.36247 14461 ft 422 kts 49°
2026-05-06 12:03 39.22411 -77.33364 15033 ft 426 kts 52°
2026-05-06 12:04 39.23547 -77.31287 15415 ft 429 kts 60°
2026-05-06 12:04 39.24887 -77.27832 15960 ft 433 kts 68°
2026-05-06 12:04 39.26119 -77.24266 16486 ft 438 kts 67°
2026-05-06 12:04 39.27402 -77.20681 17046 ft 442 kts 65°
2026-05-06 12:05 39.28732 -77.17095 17639 ft 445 kts 64°
2026-05-06 12:05 39.30100 -77.13484 18167 ft 450 kts 64°
2026-05-06 12:05 39.31476 -77.09824 18651 ft 455 kts 66°
2026-05-06 12:05 39.32520 -77.05956 19128 ft 458 kts 78°
2026-05-06 12:06 39.32892 -77.01884 19625 ft 457 kts 93°
2026-05-06 12:06 39.32530 -76.97823 20105 ft 455 kts 107°
2026-05-06 12:06 39.31702 -76.93877 20561 ft 457 kts 111°
2026-05-06 12:06 39.30779 -76.89927 21011 ft 461 kts 111°
2026-05-06 12:07 39.29847 -76.85955 21477 ft 465 kts 110°
2026-05-06 12:07 39.28927 -76.82001 21988 ft 467 kts 109°
2026-05-06 12:07 39.27993 -76.77975 22455 ft 470 kts 109°
2026-05-06 12:07 39.27053 -76.73914 22877 ft 474 kts 109°
2026-05-06 12:08 39.26106 -76.69822 23308 ft 477 kts 109°
2026-05-06 12:08 39.25154 -76.65711 23698 ft 481 kts 109°
2026-05-06 12:08 39.24189 -76.61552 24026 ft 484 kts 109°
2026-05-06 12:08 39.23220 -76.57378 24353 ft 488 kts 109°
2026-05-06 12:09 39.22240 -76.53166 24669 ft 492 kts 109°
2026-05-06 12:09 39.21251 -76.48923 25007 ft 495 kts 109°
2026-05-06 12:09 39.20255 -76.44658 25338 ft 499 kts 109°
2026-05-06 12:09 39.19252 -76.40366 25661 ft 502 kts 109°
2026-05-06 12:10 39.18240 -76.36047 25974 ft 505 kts 109°
2026-05-06 12:10 39.17220 -76.31702 26280 ft 508 kts 109°
2026-05-06 12:10 39.16223 -76.27320 26584 ft 512 kts 106°
2026-05-06 12:10 39.15621 -76.22782 26878 ft 516 kts 94°
2026-05-06 12:11 39.15683 -76.18153 27181 ft 518 kts 84°
2026-05-06 12:11 39.16081 -76.13528 27449 ft 521 kts 81°
2026-05-06 12:11 39.16600 -76.08907 27811 ft 521 kts 80°
2026-05-06 12:11 39.17168 -76.04284 28109 ft 524 kts 79°
2026-05-06 12:12 39.17747 -75.99632 28389 ft 526 kts 79°
2026-05-06 12:12 39.18462 -75.95068 28693 ft 527 kts 72°
2026-05-06 12:12 39.19699 -75.90629 28984 ft 526 kts 62°
2026-05-06 12:12 39.21504 -75.86565 29241 ft 521 kts 50°
2026-05-06 12:13 39.23846 -75.83040 29525 ft 515 kts 38°
2026-05-06 12:13 39.26465 -75.79898 29813 ft 514 kts 36°
2026-05-06 12:13 39.29174 -75.76871 30079 ft 514 kts 34°
2026-05-06 12:13 39.31910 -75.73910 30410 ft 513 kts 33°
2026-05-06 12:14 39.34663 -75.70961 30641 ft 514 kts 33°
2026-05-06 12:14 39.37414 -75.68006 30935 ft 515 kts 33°